This demonstration page uses our WeatherBlox Daily Observations layout. Learn more.

Left ArrowRight Arrow

Hourly Observations for May 26, 2022

Temp ( °F °C ) Dew Point ( °F °C ) Humidity (%) Winds ( mph kmh ) Pressure ( in mb ) Visibility ( mi km ) Precip ( " mm )
12:51 am 00:51 Clear 74 23.3 23 -5 15 15 NW 9 15 29.74 1007 10 16 0.00 0.00
1:51 am 01:51 Clear 68 20 23 -5 18 18 Calm 29.75 1007 10 16 0.00 0.00
2:51 am 02:51 Clear 68 20 22 -5.6 17 17 VRB 3 6 29.75 1008 10 16 0.00 0.00
3:51 am 03:51 Clear 65 18.3 22 -5.6 19 19 Calm 29.78 1008 10 16 0.00 0.00
4:51 am 04:51 Clear 59 15 20 -6.7 22 22 SE 5 7 29.81 1009 10 16 0.00 0.00
5:51 am 05:51 Sunny 63 17.2 21 -6.1 20 20 E 7 11 29.83 1010 10 16 0.00 0.00
6:51 am 06:51 Sunny 70 21.1 23 -5 17 17 S 3 6 29.83 1010 10 16 0.00 0.00
7:51 am 07:51 Sunny 75 23.9 26 -3.3 16 16 SE 5 7 29.86 1011 10 16 0.00 0.00
8:51 am 08:51 Sunny 82 27.8 25 -3.9 12 12 Calm 29.85 1011 10 16 0.00 0.00
9:51 am 09:51 Sunny 88 31.1 26 -3.3 10 10 VRB 3 6 29.84 1010 10 16 0.00 0.00
10:51 am 10:51 Sunny 91 32.8 25 -3.9 9 9 SSE 7 11 29.82 1010 10 16 0.00 0.00
11:51 am 11:51 Sunny 95 35 25 -3.9 8 8 undefined N/A 29.80 1009 10 16 0.00 0.00
12:51 pm 12:51 Sunny 97 36.1 23 -5 7 7 Calm 29.77 1008 10 16 0.00 0.00
1:51 pm 13:51 Sunny 97 36.1 21 -6.1 6 6 Calm 29.75 1008 10 16 0.00 0.00
2:51 pm 14:51 Sunny 99 37.2 22 -5.6 6 6 E 7 11 29.72 1007 10 16 0.00 0.00
3:51 pm 15:51 Sunny 101 38.3 22 -5.6 6 6 undefined N/A 29.71 1006 10 16 0.00 0.00
4:51 pm 16:51 Sunny 100 37.8 22 -5.6 6 6 VRB 5 7 29.71 1006 10 16 0.00 0.00
5:51 pm 17:51 Sunny 99 37.2 24 -4.4 7 7 W 9 15 29.70 1006 10 16 0.00 0.00
6:51 pm 18:51 Sunny 95 35 27 -2.8 9 9 NW 20 31 29.71 1006 10 16 0.00 0.00
7:51 pm 19:51 Clear 91 32.8 28 -2.2 10 10 NW 15 24 29.73 1007 10 16 0.00 0.00
8:51 pm 20:51 Clear 86 30 28 -2.2 12 12 WNW 12 19 29.75 1008 10 16 0.00 0.00
9:51 pm 21:51 Clear 83 28.3 27 -2.8 13 13 NW 14 22 29.77 1008 10 16 0.00 0.00
10:51 pm 22:51 Clear 78 25.6 27 -2.8 15 15 NW 9 15 29.78 1009 10 16 0.00 0.00
11:51 pm 23:51 Clear 78 25.6 27 -2.8 15 15 NW 10 17 29.78 1008 10 16 0.00 0.00

Powered by AerisWeather